Lexington Weather

Lexington, Massachusetts, USA

31°F
1/25/2021 11:22am 
  • Lexington Conditions: Clear
  • Temperature: 30.6°F / -0.8°CWarmer 4.2°F than last hour.
  • Dew Point: 11.3°FIncreased 1.1°Fsince last hour.
  • Relative Humidity: 44%Decreased 6.0% since last hour.
  • Wind: Wind from N N Calm, 10-min avg: 3 mph, gust: 8 mph
  • Barometer: 29.99 inFalling 0.03  inHg/hr Falling Slowly
  • Visibility: 10 miles
  • Snow Today: 0.0 in
  •   

Regional Weather Roundup
for Boston / Norton, MA

        
000
ASUS41 KBOX 231504
RWRBOX

REGIONAL WEATHER ROUNDUP
NATIONAL WEATHER SERVICE BOSTON/NORTON MA
1000 AM EST SAT JAN 23 2021

NOTE:  "FAIR" INDICATES FEW OR NO CLOUDS BELOW 12,000 FEET WITH NO 
SIGNIFICANT WEATHER AND/OR OBSTRUCTIONS TO VISIBILITY.

MAZALL-231600-
EASTERN MASSACHUSETTS
  
CITY           SKY/WX    TMP DP  RH WIND       PRES   REMARKS
BOSTON         MOSUNNY   28   9  44 NW17G29   29.88R WCI  16          
BEVERLY        MOSUNNY   28  13  53 NW15G21   29.86R WCI  16          
LAWRENCE       PTSUNNY   26  13  57 W14G23    29.89S WCI  14          
BEDFORD        MOSUNNY   28  10  46 W16       29.87R WCI  16          
BLUE HILL        N/A     25  14  63 NW18G28   29.82R WCI  11          
NORWOOD        PTSUNNY   31  13  47 NW17G26   29.88R WCI  19          
MARSHFIELD     CLOUDY    32  18  55 NW9G18    29.85S WCI  24          
PLYMOUTH       PTSUNNY   31  14  49 NW8G22    29.85R WCI  23          
TAUNTON        MOSUNNY   31  12  45 NW13G21   29.86S WCI  21          
NEW BEDFORD    SUNNY     31  13  47 W18G26    29.87R WCI  19          
$$

MAZALL-231600-
CAPE COD AND THE ISLANDS
  
CITY           SKY/WX    TMP DP  RH WIND       PRES   REMARKS
FALMOUTH       MOSUNNY   30  12  47 W22       29.85S WCI  17          
HYANNIS        PTSUNNY   32  14  47 NW14      29.82S WCI  22          
CHATHAM        CLOUDY    32  15  49 NW10G16   29.85R WCI  24          
PROVINCETOWN   CLOUDY    30  21  69 NW22G31   29.85R WCI  17          
NANTUCKET      CLOUDY    32  16  51 NW14G23   29.85R WCI  22          
MARTHAS VNYRD  MOSUNNY   32  13  45 NW18G26   29.86S WCI  20          
$$
 
MAZALL-231600-
CENTRAL AND WESTERN MASSACHUSETTS
  
CITY           SKY/WX    TMP DP  RH WIND       PRES   REMARKS
WORCESTER      MOSUNNY   24  11  57 NW24G32   29.84R WCI   8          
FITCHBURG      SUNNY     26   9  48 NW17G32   29.89R WCI  13          
ORANGE         PTSUNNY   24   8  50 NW15G28   29.91R WCI  11          
SPRINGFIELD    NOT AVBL                                               
WESTFIELD      MOSUNNY   24   9  52 NW9       29.96R WCI  14          
NORTH ADAMS    CLOUDY    19   7  59 W18G24    29.97R WCI   4          
PITTSFIELD     CLOUDY    16   5  62 NW18G31   29.93R WCI   0          
$$
 
RIZALL-231600-
RHODE ISLAND
  
CITY           SKY/WX    TMP DP  RH WIND       PRES   REMARKS
PROVIDENCE     MOSUNNY   30  10  43 NW15G24   29.90R WCI  19          
NEWPORT        SUNNY     29  11  47 NW17G28   29.88R WCI  17          
BLOCK ISLAND   PTSUNNY   29  12  49 NW17G33   29.92R WCI  17          
SMITHFIELD     PTSUNNY   27  13  55 W18G24    29.88R WCI  14          
WESTERLY       SUNNY     27   5  39 W15G26    29.92S WCI  15          
$$
 
CTZALL-231600-
CONNECTICUT
  
CITY           SKY/WX    TMP DP  RH WIND       PRES   REMARKS
BRADLEY INTL   PTSUNNY   26   7  44 NW15G26   29.97R WCI  14          
HARTFORD       MOSUNNY   29   6  38 NW14G31   29.98R WCI  18          
BRIDGEPORT     MOSUNNY   28   9  43 NW18G25   29.99  WCI  16          
DANBURY        CLOUDY    27  10  49 NW12G24   30.00R WCI  17          
GROTON         SUNNY     29   7  39 NW21G38   29.94R WCI  16          
NEW HAVEN      MOSUNNY   31  12  45 NW14G24   29.97S WCI  21          
CHESTER        NOT AVBL                                               
MERIDEN        FLURRIES  28   7  41 NW16G28   29.98R WCI  16          
WILLIMANTIC    CLOUDY    27   8  44 W15G31    29.95R WCI  15          
OXFORD         FLURRIES  25  16  68 NW13G23   29.96R WCI  14          
$$

MEZ002-015-021-024-NHZ003-005-008-011-012-014-VTZ005-008-231600-
NORTHERN NEW ENGLAND
  
CITY           SKY/WX    TMP DP  RH WIND       PRES   REMARKS
PORTLAND ME    MOSUNNY   25  11  55 N14       29.84R WCI  13          
BANGOR ME      SUNNY     23   9  55 NW18      29.78R WCI   9          
CONCORD NH     SUNNY     22   7  52 NW17G30   29.89R WCI   8          
MANCHESTER NH  PTSUNNY   23  11  60 NW16      29.88R WCI  10          
NASHUA NH      MOSUNNY   25   9  50 NW18G26   29.89R WCI  11          
PORTSMOUTH NH  NOT AVBL                                               
JAFFREY NH     MOSUNNY   21   6  52 W12G23    29.85R WCI   9          
KEENE NH       MOSUNNY   23   8  52 NW16G24   29.93R WCI  10          
BURLINGTON VT  FLURRIES  14   3  61 NW10      30.03R WCI   1          
MT. WASHINGTON NOT AVBL                                               
$$

NYZ052-076-231600-
EASTERN NEW YORK
  
CITY           SKY/WX    TMP DP  RH WIND       PRES   REMARKS
ALBANY         MOSUNNY   16   6  65 W20G35    30.06R WCI  -1          
NEW YORK CITY  MOSUNNY   31   9  39 NW28G36   30.05R WCI  17          
$$
 
ANZALL-231600-
MARINE OBSERVATIONS
  
STATION/POSITION TIME  TEMP    WIND        PRES    VSBY  WAVE
                       AIR SEA DIR/SP/G                  HT/PER
                 (UTC) (F)     (DEG/KT/KT) (MB)    (MI)  (FT/S)
BOSTON BUOY      1440   29 43  310/ 21/ 25 1011.5R
BUZZARDS BAY     1400          300/ 28/ 30 1012.3R
NANTUCKET SOUND  1440      39  300/ 19/ 23   N/A
MASS BAY-STELLWA 1404   28     310/ 21/ 27 1009.5R  1 7/8  4/ 4
ISLE OF SHOALS   1400   24     300/ 23/ 27 1010.0R
S OF BLOCK IS    1426      48                N/A           8/ 6
$$

......................KEY.........................
  SKY/WX - SKY CONDITION/PRESENT WEATHER
  TMP    - TEMPERATURE IN FAHRENHEIT
  DWPT   - DEWPOINT IN FAHRENHEIT
  RH     - RELATIVE HUMIDITY IN PERCENT
  WIND   - DIRECTION AND SPEED IN MPH
  PRES   - MEAN SEA LEVEL PRESSURE IN INCHES OF HG
  WCI    - WIND CHILL INDEX
  VSB    - VISIBILITY IN MILES
  HX     - HEAT INDEX
  TC     - TEMPERATURE IN CELSIUS
  VRB    - VARIABLE WIND DIRECTION
  N/A    - NOT AVAILABLE
  
      

Other recent Regional Weather Roundups

Mon Jan 25, 9:04am

Mon Jan 25, 8:05am

Mon Jan 25, 6:04am

Mon Jan 25, 5:04am

Mon Jan 25, 4:04am

Mon Jan 25, 3:04am

Mon Jan 25, 2:04am

Mon Jan 25, 1:04am

Sun Jan 24, 11:04pm

Sun Jan 24, 10:04pm

Sun Jan 24, 9:04pm

Sun Jan 24, 6:04pm

Sun Jan 24, 5:04pm

Sun Jan 24, 4:05pm

Sun Jan 24, 3:05pm

Sun Jan 24, 2:05pm

Sun Jan 24, 1:04pm

Sun Jan 24, 12:04pm

Sun Jan 24, 11:04am

Sun Jan 24, 10:04am

Sun Jan 24, 9:04am

Sun Jan 24, 8:04am

Sun Jan 24, 7:04am

Sun Jan 24, 6:04am

Sun Jan 24, 5:04am

Sun Jan 24, 4:04am

Sun Jan 24, 3:04am

Sun Jan 24, 2:04am

Sun Jan 24, 1:04am

Sun Jan 24, 12:04am

Sat Jan 23, 11:04pm

Sat Jan 23, 10:04pm

Sat Jan 23, 9:04pm

Sat Jan 23, 8:04pm

Sat Jan 23, 7:04pm

Sat Jan 23, 6:04pm

Sat Jan 23, 5:04pm

Sat Jan 23, 4:05pm

Sat Jan 23, 3:05pm

Sat Jan 23, 2:05pm

Sat Jan 23, 12:04pm

Sat Jan 23, 11:04am

Sat Jan 23, 9:04am

Sat Jan 23, 8:04am

Sat Jan 23, 7:04am

Sat Jan 23, 6:04am

Sat Jan 23, 5:04am

Sat Jan 23, 4:04am

Meta data:

ID: cb103d0f-6b58-4ad5-afce-c6116ece0575
Link: https://api.weather.gov/products/cb103d0f-6b58-4ad5-afce-c6116ece0575